Location: Castro Valley
(37.6941°N, 122.0863°W)
Time: 05:52:26
(UTC+00:00)

Cosmos 2242 Rocket - Pass Details

Date: 03 August 2024
Orbit: 616 x 647 km, 82.5° (Epoch: 14 September)

Event Time Altitude Azimuth Distance (km) Brightness Sun altitude
Rises 12:05:17 0° 354° (N) 2,897 7.4 -12.8°
Reaches altitude 10° 12:07:31 10° 356° (N) 1,989 6.6 -12.5°
Maximum altitude 12:11:55 77° 83° (E) 642 3.7 -11.7°
Drops below altitude 10° 12:16:19 10° 169° (S) 1,989 5.9 -11.0°
Sets 12:18:33 0° 171° (S) 2,896 6.8 -10.6°
